Regional Weather Roundup
Issued by NWS

Home | Current Version | Previous Version | Text Only | Print | Product List | Glossary Off
Versions: 1 2 3 4 5 6 7 8 9 10 11 12 13 14 15 16 17 18 19 20 21 22 23 24 25 26 27 28 29 30 31 32 33 34 35 36 37 38 39 40 41 42 43 44 45 46 47 48 49 50

000
ASUS43 KIND 271009
RWRIN

WEATHER ROUNDUP FOR INDIANA
NATIONAL WEATHER SERVICE INDIANAPOLIS IN
600 AM EDT WED MAY 27 2015

NOTE: "FAIR" INDICATES FEW OR NO CLOUDS BELOW 12,000 FEET WITH NO
SIGNIFICANT WEATHER AND/OR OBSTRUCTIONS TO VISIBILITY.

* - STATION DOES NOT REPORT WEATHER SUCH AS PRECIPITATION OR FOG.

+ - STATION NOT QUALITY CONTROLLED BY THE NATIONAL WEATHER SERVICE.
    USE DATA WITH CAUTION...ESPECIALLY DEWPOINT AND RELATIVE
    HUMIDITY OBSERVATIONS.

INZ001>003-010>013-019-020-271100-
NORTHWEST INDIANA

CITY           SKY/WX    TMP DP  RH WIND       PRES   REMARKS
GARY /AIRPORT/ PTCLDY    68  63  83 S8        29.91R
KNOX *+        CLEAR     64  59  82 SW14      29.94R
LA PORTE +     PTCLDY    67  61  83 SW10      29.94R
MICHIGAN CITY+ PTCLDY    64  59  82 SW8       29.92R
MONTICELLO +   CLEAR     64  62  92 S12       29.97R
RENSSELAER +   PTCLDY    64  63  94 SW12      29.96R
VALPARAISO     CLEAR     65  59  81 SW12      29.94R

$$

LMZ046-743>745-271100-
SOUTHERN LAKE MICHIGAN

STATION/POSITION TIME  TEMP    WIND        PRES    WAVE
                       AIR SEA DIR/SP/G            HT
                 (UTC) (F)     (DEG/KT/KT) (MB)    (FT)
BURNS HARBOR     1000   67     210/ 13/ 19 1013.2R
MICHIGAN CITY    1000   67     180/ 16/ 19   N/A
5NW MICH CITY    1000   62 52  220/ 14/ 17   N/A     2

$$

INZ004-005-014>016-021>024-271100-
NORTH CENTRAL INDIANA

CITY           SKY/WX    TMP DP  RH WIND       PRES   REMARKS
GOSHEN         CLEAR     65  59  81 SW12      29.95R
LOGANSPORT +   CLEAR     64  57  77 SW17      29.99R
PERU/GRISSOM   CLEAR     66  61  84 SW15      29.98R
ROCHESTER +    CLEAR     68  61  77 SW9       29.97R
SOUTH BEND     CLEAR     66  59  78 SW12      29.93R
WARSAW +       CLEAR     64  61  88 SW6       29.96R

$$

INZ006>009-017-018-025>027-271100-
NORTHEAST INDIANA

CITY           SKY/WX    TMP DP  RH WIND       PRES   REMARKS
ANGOLA *+      PTCLDY    64  54  68 SW8       29.96R
AUBURN +       MOCLDY    64  59  82 SW7       29.98R
FORT WAYNE     PTCLDY    63  60  90 S10       29.99R
HUNTINGTON +   CLEAR     64  60  85 SW7       30.00R

$$

INZ028-029-035-036-043>045-051>053-271100-
WEST CENTRAL INDIANA

CITY           SKY/WX    TMP DP  RH WIND       PRES   REMARKS
CRAWFORDSVL +  CLEAR     62  57  83 S9        30.02R
GREENCASTLE +  CLEAR     63  57  82 S5        30.04S
LAFAYETTE      CLEAR     65  60  84 SW6       29.98R
TERRE HAUTE    PTCLDY    65  62  90 S8        30.03R

$$

INZ030>032-037>040-046>048-054>057-064-065-271100-
CENTRAL INDIANA

CITY           SKY/WX    TMP DP  RH WIND       PRES   REMARKS
CP ATTERBURY + PTCLDY    61  59  94 CALM      30.06R
FRANKFORT +    CLEAR     64  62  90 S8        30.02R
GREENWOOD *+   CLEAR     61  57  88 S5        30.05R
INDIANAPOLIS   PTCLDY    63  59  87 SW9       30.03R
-EAGLE CREEK   CLEAR     64  60  87 SW7       30.03R
KOKOMO *+      PTCLDY    66  59  77 SW15      30.01R
MARION +       CLEAR     63  58  86 S12       30.02R
MT COMFORT *+  CLEAR     63 N/A N/A S8        30.05R
SHELBYVILLE    PTCLDY    64  60  87 S7        30.05R
ZIONSVILLE +   CLEAR     64  59  82 SW9       30.04R

$$

INZ033-034-041-042-049-050-058-059-271100-
EAST CENTRAL INDIANA

CITY           SKY/WX    TMP DP  RH WIND       PRES   REMARKS
MUNCIE         CLEAR     65  60  84 SW10      30.03R

$$

INZ060-061-067>069-081>083-085>088-271100-
SOUTHWEST INDIANA

CITY           SKY/WX    TMP DP  RH WIND       PRES   REMARKS
EVANSVILLE     CLEAR     63  60  90 CALM      30.07R
HUNTINGBURG *+ CLEAR     63  57  82 S5        30.08R
WASHINGTON +   CLEAR     61  57  88 SE5       30.06R

$$

INZ062-063-066-070>080-084-089>092-271100-
SOUTH CENTRAL AND SOUTHEAST INDIANA

CITY           SKY/WX    TMP DP  RH WIND       PRES   REMARKS
BLOOMINGTON    CLEAR     63  61  93 SW6       30.06R
MADISON *+     PTCLDY    64  63  94 S5        30.10R
NORTH VERNON + PTCLDY    64  64 100 S3        30.08R
SEYMOUR +      PTCLDY    64  61  88 S7        30.07R

$$



USA.gov is the U.S. government's official web portal to all federal, state and local government web resources and services.